Showing default

PERUSAT 1, 41770

Orbit data source: Space-Track

PERUSAT 1, 41770 is a payload satellite owned by MOD Peru (PE) in SSO that was launched on Fri, 16 Sep 2016 UTC via a VEGA launch vehicle from the French Guiana (FRGUI). Payload-class satellites include a variety of spacecraft equipped with specific instruments for various scientific and technological missions. These include communications satellites like Starlink; space stations such as the ISS; scientific satellites like the Hubble; Earth observation satellites from companies like Planet Labs, Umbra, and HawkEye 360; GPS; miniature CubeSats for education and research; and military/defense satellites.

Loading next visibility...
Identifier
41770, 2016-058A
Orbit
SSO
Last TLE update
8 hours ago
Origin
Manufacturer
Airbus/Toulouse
Mission
Operational Defense Imaging
Bus & Motor
ASTROBUS-S, Unknown motor
Mass
430 kg wet, ~400 kg dry
Launch date (UTC)
2016-09-16 (9 years ago)
Launch vehicle
VEGA
Launch site
French Guiana (FRGUI)
Object type
Payload
Rocket body
Debris
Shape & HBR
Hex Cyl + 3 Pan, 4.5 m
Radar Cross Section
3.025 m², Large (>1 m²)

Expand to show TLE details & history

TLE from 8 hours ago
0 PERUSAT 1
1 41770U 16058A   25128.89886786  .00000493  00000-0  11575-3 0  9995
2 41770  98.1887 203.3838 0001316  92.9418 267.1932 14.58587209460169
Epoch: 2025-05-08T21:34Z
Definitive object data (Epoch: 2025-05-08T21:34:22.183Z)
Latitude
Longitude
12.82862°
Altitude
700.769 km
Speed
7.506 km/s
True Right ascension
13h 33m 32s
True Declination
0° 00' 00"
Sunlit
Object was in full shadow at TLE epoch
Visualization TLE readout
Latitude
53.04979°
Longitude
2.20746°
Altitude
705.667 km
Speed
7.509 km/s
Apparent Right ascension
06h 06m 39s
Apparent Declination
42° 17' 55"
Sunlit
Object is in daylight
Visualization observer readout
Local Sidereal Time
14:11:46
Azimuth
320.344° NNW
Elevation
7.891°
Doppler factor
1
Orbital elements
Apogee altitude
695.753 km
Perigee altitude
693.891 km
Semi-major axis
7,072.959 km
Eccentricity
0.0001316
Inclination
98.1887°
RAAN
203.3838°
Arg. of periapsis
92.9418°
True anomaly
267.17814°
Mean anomaly
267.1932°
Eccentric anomaly
267.18567°
Mean motion
3.64873 °/min
BSTAR
0.00011575
Orbital period
98.66 mins
Loading maneuver chart data...
Loading SW <> Apogee altitude chart data...
Loading historical data...
Loading historical data...
Loading historical data...
Loading historical data...
Loading historical data...
Loading historical data...
Loading historical data...

PERUSAT 1 Visibility forecast

Observer location: undefined°, undefined°

Span
Click to sort rows by Start time (UTC) header in descending order
Start Az.
Max El. time (UTC)
Max El. Az.
Max El.
End time (UTC)
End Az.
8 mins2025-05-09 17:54:00.093Z10.553° NNE2025-05-09 17:58:00.093Z281.047° WNW44.715°2025-05-09 18:02:00.093Z197.901° SSW
7 mins2025-05-10 04:59:00.093Z169.759° S2025-05-10 05:02:00.093Z201.43° SSW44.325°2025-05-10 05:06:00.093Z344.737° N
|